Location: Antin
(43.3330°N, 0.2804°E)
Time: 04:27:32
(UTC+00:00)

H-2A R/B - Pass Details

Date: 16 October 2021
Orbit: 577 x 654 km, 98.5° (Epoch: 02 December)

Event Time Altitude Azimuth Distance (km) Brightness Sun altitude
Rises 18:14:30 0° 24° (NNE) 2,802 5.2 -11.7°
Reaches altitude 10° 18:16:53 10° 36° (NE) 1,900 4.2 -12.2°
Maximum altitude 18:20:29 29° 97° (E) 1,079 2.7 -12.8°
Drops below altitude 10° 18:24:05 10° 158° (SSE) 1,905 4.4 -13.5°
Sets 18:26:28 0° 170° (S) 2,810 5.3 -13.9°
